Powrót do katalogu

PEGASUS R/B

AktywnyLEO
NORAD 22491·ROCKET BODY·🇺🇸 United States

Wystrzelony Feb 9, 1993 z Cape Canaveral Space Force Station

Loading…

Następne Przeloty (najbliższe 24 godziny)

TLE

ŚwieżeSource: Space-Track

Epoka: Sep 14, 2026, 00:48 UTC

1 22491U 93009C   26257.03350193  .00000879  00000-0  14210-3 0  9990
2 22491  24.9770 250.8741 0043790 345.8173  14.1108 14.58061992782614

Śledź PEGASUS R/B w czasie rzeczywistym z AllMySat

Download on the App Store